Regional Weather Roundup
Issued by NWS Glasgow, MT

Home | Current Version | Previous Version | Text Only | Print | Product List | Glossary On
Versions: 1 2 3 4 5 6 7 8 9 10 11 12 13 14 15 16 17 18 19 20 21 22 23 24 25 26 27 28 29 30 31 32 33 34 35 36 37 38 39 40 41 42 43 44 45 46 47 48 49 50
000
ASUS45 KGGW 311315
RWRGGW
HOURLY REGIONAL WEATHER ROUNDUP FOR NORTHEAST MONTANA
NATIONAL WEATHER SERVICE GLASGOW MONTANA
700 AM MDT MON AUG 31 2015

NOTE: "FAIR" INDICATES FEW OR NO CLOUDS BELOW 12,000 FEET WITH NO
SIGNIFICANT WEATHER AND/OR OBSTRUCTIONS TO VISISBILITY.

NORTHEAST MONTANA


CITY           SKY/WX    TMP DP  RH WIND       PRES   REMARKS
GLASGOW        CLEAR     52  43  71 W13       29.85R
PLENTYWOOD       N/A     54  46  74 W9G17       N/A
WOLF POINT     CLEAR     56  48  74 W12       29.86R
JORDAN           N/A     47  41  80 W3        29.91R
WINNETT          N/A     48  39  71 E3          N/A
SIDNEY         PTCLDY    59  52  77 SW8       29.87R
GLENDIVE       CLEAR     54  50  87 S5        29.92R
MALTA            N/A     50  40  68 SW7         N/A
SCOBEY           N/A     52  42  69 SW13      29.82R
OPHEIM           N/A     48  41  76 SW7       29.68R

FORT PECK REPORTS


CITY           SKY/WX    TMP DP  RH WIND       PRES   REMARKS
FORT PECK        N/A     57  45  64 SW15G25     N/A
THE PINES        N/A     55  40  56 SW7         N/A

SOUTHEAST MONTANA


CITY           SKY/WX    TMP DP  RH WIND       PRES   REMARKS
BILLINGS       PTCLDY    55  42  61 SW7       29.98S
MILES CITY     CLEAR     54  49  83 SW3       29.95R
BAKER          CLEAR     54  51  90 W9        29.94R
LIVINGSTON     PTCLDY    50  37  61 W12       30.03S

CENTRAL MONTANA


CITY           SKY/WX    TMP DP  RH WIND       PRES   REMARKS
HAVRE          CLEAR     51  35  54 MISG      29.85S
LEWISTOWN      PTCLDY    47  35  63 VRB3      29.95S
GREAT FALLS    PTCLDY    53  34  48 SW22      29.90F
CUT BANK       MOCLDY    54  33  45 W28G41    29.86R
HELENA         MOCLDY    56  33  42 W7        30.03R
BUTTE          PTCLDY    41  35  79 CALM      30.11R
BOZEMAN        PTCLDY    42  37  82 CALM      30.06S

WESTERN MONTANA


CITY           SKY/WX    TMP DP  RH WIND       PRES   REMARKS
MISSOULA       CLOUDY    45  43  93 CALM      30.07S
KALISPELL      NOT AVBL

NORTH DAKOTA


CITY           SKY/WX    TMP DP  RH WIND       PRES   REMARKS
WILLISTON        N/A    N/A N/A N/A MISG      29.84R
DICKINSON      MOCLDY    57  52  83 NW5       29.87R
MINOT          CLOUDY    61  54  77 NW10      29.77R
BISMARCK       CLOUDY    68  56  65 NW9G18    29.77R

SOUTHERN SASKATCHEWAN


CITY           SKY/WX    TMP DP  RH WIND       PRES   REMARKS
REGINA         MOCLDY    54  52  94 SW14      29.69R
MOOSE JAW      PTCLDY    55  46  71 SW15      29.70R
ESTEVAN        PTCLDY    55  54  94 SW8       29.75R
SWIFT CURRENT  CLEAR     54  37  54 SW22G31   29.69R



USA.gov is the U.S. government's official web portal to all federal, state and local government web resources and services.